#timestamp,LO_Frequency,Hit 
1499864415.8,286047017.2,N
1499864435.7,286047014.2,N
1499864455.5,286047015.8,N
1499864475.3,286047018.3,N
1499864495.1,286047021.6,N
1499864515.9,286047021.0,N
1499864535.1,286047018.3,N
1499864555.8,286047016.8,N
1499864575.7,286047012.7,N
1499864595.5,286047013.2,N
1499864615.3,286047012.2,N
1499864635.2,286047010.2,N
1499864655.9,286047007.8,N
1499864675.7,286047011.2,N
1499864695.6,286047015.5,N
1499864715.4,286047014.2,N
1499864735.2,286047017.2,N
1499864755.1,286047016.2,N
1499864756.0,286047016.2,N
1499864775.8,286047014.9,N
1499864795.6,286047014.5,N
1499864815.4,286047012.5,N
1499864835.3,286047011.6,N
1499864855.1,286047009.8,N
1499864875.8,286047010.4,N
1499864895.7,286047008.0,N
1499864915.5,286047006.3,N
1499864935.3,286047008.4,N
1499864955.2,286047008.2,N
1499864975.9,286047009.7,N
1499864995.7,286047009.6,N
1499865015.6,286047010.1,N
1499865035.4,286047011.1,N
1499865055.2,286047011.1,N
1499865075.0,286047014.1,N
1499865076.0,286047014.1,N
1499865095.8,286047013.7,N
1499865115.6,286047013.3,N
1499865135.4,286047012.1,N
1499865155.3,286047011.9,N
1499865175.1,286047010.5,N
1499865195.8,286047009.3,N
1499865215.7,286047009.8,N
1499865235.5,286047010.2,N
1499865255.3,286047009.6,N
1499865275.2,286047009.4,N
1499865295.9,286047009.3,N
1499865315.7,286047009.3,N
1499865335.6,286047013.7,N
1499865355.4,286047013.7,N
1499865375.2,286047011.4,N
1499865395.1,286047012.2,N
1499865396.0,286047012.2,N
1499865415.8,286047013.8,N
1499865435.6,286047012.8,N
1499865455.5,286047011.8,N
1499865475.3,286047009.9,N
1499865495.1,286047010.6,N
1499865515.9,286047013.3,N
1499865535.7,286047014.3,N
1499865555.5,286047016.8,N
1499865575.3,286047014.4,N
1499865595.2,286047010.9,N
1499865615.0,286047011.3,N
1499865615.9,286047011.3,N
1499865635.7,286047012.6,N
1499865655.6,286047013.6,N
1499865675.4,286047012.3,N
1499865695.2,286047012.4,N
1499865715.1,286047013.9,N
1499865716.0,286047013.9,N
1499865735.8,286047007.8,N
1499865755.6,286047006.1,N
1499865775.5,286047006.6,N
1499865795.3,286047010.7,N
1499865815.1,286047005.1,N
1499865835.9,286047005.1,N
1499865855.7,286047005.5,N
1499865875.5,286047003.9,N
1499865895.4,286047003.5,N
1499865915.2,286047003.6,N
1499865935.0,286047001.6,N
1499865935.9,286047001.6,N
1499865955.8,286047004.5,N
1499865975.6,286047006.3,N
1499865995.4,286047003.1,N
1499866015.2,286047001.9,N
1499866035.1,286047004.3,N
1499866036.0,286047004.3,N
1499866055.8,286047004.0,N
1499866075.6,286047005.8,N
1499866095.5,286047008.8,N
1499866115.3,286047006.7,N
1499866135.1,286047005.5,N
1499866155.9,286047001.6,N
1499866175.7,286047002.7,N
1499866195.5,286047001.4,N
1499866215.4,286047001.7,N
1499866235.2,286047002.5,N
1499866255.0,286047002.7,N
1499866255.9,286047002.7,N
1499866275.8,286047002.3,N
1499866295.6,286047004.2,N
1499866315.4,286047001.8,N
1499866335.3,286047001.3,N
1499866355.1,286047004.1,N
1499866356.0,286047004.1,N
1499866375.8,286047005.7,N
1499866395.6,286047003.8,N
1499866415.5,286047000.7,N
1499866435.3,286046997.3,N
1499866455.1,286046997.5,N
1499866475.9,286046995.1,N
1499866495.7,286046994.9,N
1499866515.5,286046996.2,N
1499866535.4,286046995.4,N
1499866555.2,286046995.9,N
1499866575.0,286046995.9,N
1499866575.9,286046995.9,N
1499866595.8,286046993.3,N
1499866615.6,286046995.2,N
1499866635.4,286046998.2,N
1499866655.3,286046999.8,N
1499866675.1,286046996.8,N
1499866676.0,286046996.8,N
1499866695.8,286046996.8,N
1499866715.7,286046994.9,N
1499866735.5,286046996.4,N
1499866755.3,286046994.2,N
1499866775.2,286046992.5,N
1499866795.9,286046990.5,N
1499866815.7,286046991.8,N
1499866835.5,286046993.4,N
1499866855.4,286046997.5,N
1499866875.2,286046997.1,N
1499866895.0,286046995.5,N
1499866895.9,286046995.5,N
1499866915.8,286046994.5,N
1499866935.6,286046995.7,N
1499866955.4,286046994.2,N
1499866975.3,286046993.7,N
1499866995.1,286046996.0,N
1499867015.8,286046995.6,N
1499867035.7,286046995.5,N
1499867055.5,286046998.7,N
1499867075.3,286047000.5,N
1499867095.2,286046998.6,N
1499867115.9,286046998.7,N
1499867135.7,286046997.3,N
1499867155.6,286046999.6,N
1499867175.4,286046997.3,N
1499867195.2,286046999.2,N
1499867215.1,286046998.0,N
1499867216.0,286046998.0,N
1499867235.8,286046995.4,N
1499867255.6,286046992.3,N
1499867275.4,286046990.6,N
1499867295.3,286046990.1,N
1499867315.1,286046993.0,N
1499867335.8,286046991.3,N
1499867355.7,286046987.6,N
1499867375.5,286046985.5,N
1499867395.3,286046986.1,N
1499867415.2,286046984.6,N
1499867435.9,286046982.2,N
1499867455.7,286046984.1,N
1499867475.6,286046984.2,N
1499867495.4,286046982.1,N
1499867515.2,286046986.7,N
1499867535.1,286046985.4,N
1499867536.0,286046985.4,N
1499867555.8,286046988.2,N
1499867575.6,286046987.9,N
1499867595.4,286046988.2,N
1499867615.3,286046986.7,N
1499867635.1,286046986.7,N
1499867655.8,286046987.8,N
1499867675.7,286046987.5,N
1499867695.5,286046984.9,N
1499867715.3,286046984.1,N
1499867735.2,286046985.8,N
1499867755.9,286046988.2,N
1499867775.7,286046985.5,N
1499867795.6,286046983.7,N
1499867815.4,286046984.3,N
1499867835.2,286046988.2,N
1499867855.1,286046986.1,N
1499867856.0,286046986.1,N
1499867875.8,286046985.8,N
1499867895.6,286046987.9,N
1499867915.4,286046985.6,N
1499867935.3,286046984.1,N
1499867955.1,286046984.6,N
1499867975.8,286046984.5,N
1499867995.7,286046983.0,N
